1489190400.25,52602,8.13,73096.3,-12.81,-35.41,-36.67,0,*6E
1489190401.47,52603,8.13,73116.3,-12.81,-35.77,-36.97,0,*65
1489190402.71,52604,8.13,73110.5,-12.81,-36.13,-37.15,0,*68
1489190403.97,52605,8.13,73102.8,-12.79,-36.13,-37.15,0,*6E
1489190405.18,52606,8.13,73102.3,-12.81,-36.19,-37.27,0,*61
1489190406.39,52607,8.13,73104.3,-12.81,-36.19,-37.33,0,*65
1489190407.6,52608,8.13,73078.0,-12.81,-36.19,-37.33,0,*6A
1489190408.81,52609,8.13,73080.0,-12.81,-36.19,-37.33,0,*6B
1489190410.03,52610,8.13,73094.0,-12.81,-36.31,-37.27,0,*6C
1489190411.27,52611,8.13,73092.3,-12.79,-36.31,-37.27,0,*6A
1489190412.51,52612,8.13,73094.0,-12.81,-36.13,-37.15,0,*6F
1489190413.75,52613,8.13,73092.0,-12.79,-36.01,-36.97,0,*61
1489190414.96,52614,8.13,73092.0,-12.81,-36.19,-37.15,0,*63
1489190416.18,52615,8.13,73092.0,-12.81,-36.19,-37.15,0,*62
1489190417.41,52616,8.13,73098.5,-12.79,-36.19,-37.27,0,*67
1489190418.63,52617,8.13,73086.8,-12.81,-36.31,-37.27,0,*6B
1489190419.89,52618,8.13,73086.3,-12.79,-36.37,-37.45,0,*61
1489190421.18,52619,8.13,73094.8,-12.79,-36.37,-37.51,0,*65
1489190422.46,52620,8.13,73092.3,-12.81,-36.37,-37.63,0,*69
1489190423.73,52621,8.13,73090.5,-12.79,-36.31,-37.51,0,*68
1489190425.02,52622,8.13,73084.5,-12.79,-36.49,-37.63,0,*65
1489190426.32,52623,8.13,73072.3,-12.79,-36.37,-37.51,0,*6C
1489190427.61,52624,8.13,73082.8,-12.79,-36.37,-37.51,0,*6B
1489190428.88,52625,8.13,73094.5,-12.81,-36.49,-37.69,0,*6F
1489190430.17,52626,8.13,73078.3,-12.79,-36.49,-37.63,0,*61
1489190431.42,52627,8.13,73080.8,-12.81,-36.31,-37.63,0,*68
1489190432.65,52628,8.13,73088.0,-12.81,-36.37,-37.45,0,*65
1489190433.89,52629,8.13,73090.8,-12.79,-36.19,-37.27,0,*6B
1489190435.13,52630,8.13,73086.0,-12.79,-36.31,-37.33,0,*6C
1489190436.38,52631,8.13,73090.3,-12.81,-36.31,-37.51,0,*6E
1489190437.59,52632,8.13,73100.3,-12.81,-36.31,-37.45,0,*68
1489190438.8,52633,8.13,73088.0,-12.81,-36.31,-37.45,0,*69
1489190440.01,52634,8.13,73092.8,-12.81,-36.19,-37.33,0,*65
1489190441.22,52635,8.13,73096.8,-12.81,-36.19,-37.33,0,*64
1489190442.45,52636,8.13,73098.0,-12.81,-36.37,-37.45,0,*6A
1489190443.66,52637,8.13,73096.0,-12.81,-36.31,-37.45,0,*6D
1489190444.9,52638,8.13,73090.8,-12.81,-36.13,-37.15,0,*67
1489190446.11,52639,8.13,73088.3,-12.81,-36.19,-37.27,0,*6D
1489190447.32,52640,8.13,73088.5,-12.81,-36.19,-37.33,0,*66
1489190448.56,52641,8.13,73092.3,-12.79,-36.19,-37.45,0,*61
1489190449.79,52642,8.13,73088.3,-12.79,-36.31,-37.45,0,*68
1489190451.03,52643,8.13,73088.3,-12.79,-36.19,-37.33,0,*62
1489190452.24,52644,8.13,73084.3,-12.81,-36.19,-37.45,0,*63
1489190453.45,52645,8.13,73092.5,-12.81,-36.19,-37.33,0,*63
1489190454.66,52646,8.13,73086.0,-12.81,-36.19,-37.33,0,*60
1489190455.93,52647,8.06,73096.8,-12.79,-36.13,-37.15,0,*68
1489190457.14,52648,8.13,73100.0,-12.81,-36.19,-37.15,0,*6A
1489190458.41,52649,8.13,73100.5,-12.79,-36.13,-37.15,0,*66
1489190459.64,52650,8.13,73100.3,-12.81,-36.13,-37.15,0,*69
1489190460.88,52651,8.13,73098.0,-12.79,-36.19,-37.33,0,*61
1489190462.1,52652,8.13,73088.0,-12.81,-36.31,-37.33,0,*6F
1489190463.31,52653,8.13,73090.8,-12.81,-36.31,-37.33,0,*6E
1489190464.55,52654,8.13,73102.3,-12.79,-36.31,-37.33,0,*6E
1489190465.76,52655,8.13,73098.0,-12.81,-36.19,-37.33,0,*62
1489190466.97,52656,8.13,73096.5,-12.81,-36.19,-37.27,0,*64
1489190468.2,52657,8.13,73100.8,-12.81,-36.13,-37.33,0,*6A
1489190469.44,52658,8.13,73104.8,-12.79,-36.19,-37.33,0,*68
1489190470.65,52659,8.13,73110.8,-12.81,-36.19,-37.45,0,*6F
1489190471.89,52660,8.13,73110.0,-12.79,-36.31,-37.45,0,*68
1489190473.1,52661,8.13,73110.3,-12.81,-36.19,-37.33,0,*65
1489190474.36,52662,8.13,73102.5,-12.79,-36.37,-37.45,0,*6C
1489190475.59,52663,8.13,73090.0,-12.81,-36.37,-37.45,0,*6A
1489190476.85,52664,8.13,73088.3,-12.81,-36.49,-37.69,0,*6A
1489190478.09,52665,8.13,73098.5,-12.79,-36.31,-37.45,0,*6D
1489190479.33,52666,8.13,73094.8,-12.81,-36.37,-37.33,0,*6E
1489190480.6,52667,8.13,73100.5,-12.81,-36.37,-37.51,0,*6B
1489190481.84,52668,8.13,73100.8,-12.81,-36.31,-37.51,0,*62
1489190483.05,52669,8.13,73104.0,-12.81,-36.31,-37.45,0,*66
1489190484.29,52670,8.13,73110.0,-12.85,-36.19,-37.21,0,*62
1489190485.51,52671,8.13,73100.8,-12.85,-36.19,-37.15,0,*64
1489190486.72,52672,8.13,73102.5,-12.81,-36.19,-37.15,0,*63
1489190487.96,52673,8.13,73090.5,-12.79,-36.19,-37.33,0,*61
1489190489.17,52674,8.06,73088.3,-12.81,-36.31,-37.45,0,*6A
1489190490.39,52675,8.13,73112.3,-12.81,-36.31,-37.27,0,*6F
1489190491.6,52676,8.13,73096.0,-12.81,-36.19,-37.15,0,*67
1489190492.83,52677,8.13,73094.8,-12.81,-36.13,-37.27,0,*6D
1489190494.04,52678,8.06,73092.8,-12.81,-36.19,-37.33,0,*6D
1489190495.28,52679,8.13,73102.8,-12.81,-36.13,-37.15,0,*62
1489190496.52,52680,8.13,73094.5,-12.81,-35.77,-36.91,0,*68
1489190497.76,52681,8.13,73092.0,-12.81,-35.83,-36.97,0,*64
1489190499.03,52682,8.13,73086.8,-12.79,-35.95,-36.97,0,*67
1489190500.28,52683,8.13,73086.8,-12.81,-35.95,-37.15,0,*6A
1489190501.51,52684,8.13,73086.5,-12.79,-36.19,-37.27,0,*6C
1489190502.73,52685,8.06,73086.8,-12.81,-36.31,-37.33,0,*65
1489190503.97,52686,8.06,73096.5,-12.79,-36.31,-37.33,0,*61
1489190505.18,52687,8.13,73086.3,-12.81,-36.31,-37.33,0,*67
1489190506.45,52688,8.13,73096.8,-12.81,-36.37,-37.51,0,*6A
1489190507.66,52689,8.13,73092.0,-12.81,-36.31,-37.33,0,*69
1489190508.9,52690,8.13,73090.5,-12.79,-36.31,-37.33,0,*66
1489190510.12,52691,8.13,73088.5,-12.81,-36.31,-37.33,0,*60
1489190511.33,52692,8.13,73106.5,-12.81,-36.31,-37.27,0,*66
1489190512.54,52693,8.13,73100.5,-12.81,-36.31,-37.33,0,*62
1489190513.75,52694,8.13,73096.8,-12.81,-36.31,-37.45,0,*64
1489190514.99,52695,8.13,73094.3,-12.79,-36.31,-37.33,0,*63
1489190516.26,52696,8.13,73098.8,-12.79,-36.37,-37.33,0,*66
1489190517.5,52697,8.13,73098.3,-12.79,-36.31,-37.33,0,*61
1489190518.74,52698,8.13,73096.8,-12.79,-36.31,-37.33,0,*6E
1489190519.95,52699,8.13,73098.3,-12.81,-36.31,-37.45,0,*69
1489190521.17,52700,8.06,73090.3,-12.81,-36.31,-37.27,0,*6C
1489190522.37,52701,8.13,73096.5,-12.81,-36.19,-37.27,0,*67
1489190523.58,52702,8.13,73100.8,-12.81,-36.19,-37.27,0,*64
1489190524.8,52703,8.13,73102.0,-12.81,-36.19,-37.33,0,*60
1489190526.01,52704,8.13,73102.5,-12.81,-36.19,-37.33,0,*67
1489190527.22,52705,8.13,73106.0,-12.81,-36.19,-37.33,0,*66
1489190528.45,52706,8.13,73100.0,-12.81,-36.13,-37.15,0,*6B
1489190529.69,52707,8.13,73106.8,-12.79,-36.19,-37.27,0,*66
1489190530.9,52708,8.13,73106.5,-12.81,-36.19,-37.27,0,*6E
1489190532.11,52709,8.13,73108.0,-12.81,-36.19,-37.33,0,*6A
1489190533.33,52710,8.13,73106.8,-12.81,-36.19,-37.15,0,*66
1489190534.54,52711,8.13,73106.0,-12.81,-36.19,-37.15,0,*67
1489190535.75,52712,8.13,73106.5,-12.81,-36.19,-37.27,0,*65
1489190537.02,52713,8.13,73110.3,-12.79,-36.13,-37.15,0,*68
1489190538.26,52714,8.13,73106.3,-12.81,-36.13,-37.15,0,*68
1489190539.49,52715,8.13,73106.5,-12.81,-36.13,-37.15,0,*69
1489190540.76,52716,8.13,73118.5,-12.81,-35.95,-37.09,0,*6A
1489190541.97,52717,8.13,73112.5,-12.81,-36.01,-36.97,0,*63
1489190543.22,52718,8.13,73116.3,-12.85,-36.19,-37.21,0,*6D
1489190544.46,52719,8.13,73112.8,-12.85,-36.19,-37.21,0,*6C
1489190545.67,52720,8.13,73118.0,-12.81,-36.19,-37.27,0,*64
1489190546.9,52721,8.13,73118.0,-12.81,-36.19,-37.09,0,*69
1489190548.11,52722,8.13,73118.8,-12.81,-36.19,-37.27,0,*66
1489190549.32,52723,8.13,73112.3,-12.81,-36.19,-37.27,0,*67
1489190550.53,52724,8.13,73110.8,-12.81,-36.19,-37.33,0,*65
1489190551.77,52725,8.13,73110.3,-12.81,-36.19,-37.09,0,*6D
1489190552.98,52726,8.13,73110.8,-12.81,-36.19,-37.27,0,*62
1489190554.25,52727,8.13,73110.8,-12.85,-36.37,-37.39,0,*64
1489190555.47,52728,8.13,73124.3,-12.81,-36.31,-37.15,0,*67
1489190556.73,52729,8.13,73120.3,-12.81,-36.13,-37.09,0,*6B
1489190557.95,52730,8.13,73120.3,-12.81,-36.19,-37.15,0,*64
1489190559.16,52731,8.13,73120.5,-12.81,-36.19,-37.33,0,*61
1489190560.37,52732,8.13,73110.0,-12.81,-36.31,-37.33,0,*68
1489190561.58,52733,8.13,73110.8,-12.81,-36.31,-37.33,0,*69
1489190562.82,52734,8.13,73106.8,-12.85,-36.37,-37.57,0,*6E
1489190564.12,52735,8.13,73112.5,-12.87,-36.49,-37.63,0,*63
1489190565.36,52736,8.13,73118.5,-12.85,-36.25,-37.33,0,*6D
1489190566.61,52737,8.13,73118.5,-12.85,-36.25,-37.33,0,*6C
1489190567.85,52738,8.13,73126.5,-12.85,-36.07,-37.21,0,*60
1489190569.07,52739,8.13,73122.5,-12.85,-35.89,-37.15,0,*63
1489190570.28,52740,8.13,73124.8,-12.85,-35.47,-37.15,0,*6F
1489190571.52,52741,8.13,73130.0,-12.85,-35.65,-36.97,0,*65
1489190572.73,52742,8.13,73122.0,-12.85,-35.89,-37.15,0,*6F
1489190574.0,52743,8.13,73126.8,-12.87,-36.07,-37.21,0,*6E
1489190575.28,52744,8.13,73130.5,-12.87,-35.89,-37.21,0,*6C
1489190576.57,52745,8.13,73122.3,-12.87,-35.95,-37.09,0,*6A
1489190577.81,52746,8.13,73126.8,-12.85,-36.07,-37.21,0,*69
1489190579.06,52747,8.13,73132.0,-12.85,-36.07,-37.21,0,*68
1489190580.3,52748,8.13,73130.0,-12.85,-36.07,-37.21,0,*67
1489190581.52,52749,8.13,73122.5,-12.85,-36.01,-37.15,0,*67
1489190582.81,52750,8.13,73114.5,-12.87,-36.13,-37.21,0,*69
1489190584.08,52751,8.13,73126.3,-12.87,-36.25,-37.27,0,*6B
1489190585.32,52752,8.13,73124.0,-12.85,-36.19,-37.21,0,*63
1489190586.56,52753,8.13,73126.8,-12.87,-36.07,-37.03,0,*6F
1489190587.77,52754,8.13,73120.0,-12.85,-35.71,-36.73,0,*6E
1489190589.07,52755,8.13,73110.5,-12.87,-35.95,-36.79,0,*6D
1489190590.33,52756,8.13,73100.3,-12.87,-36.25,-37.27,0,*6C
1489190591.61,52757,8.13,73104.8,-12.85,-36.25,-37.21,0,*69
1489190592.85,52758,8.13,73106.3,-12.87,-36.31,-37.27,0,*67
1489190594.09,52759,8.13,73104.3,-12.87,-36.31,-37.27,0,*66
1489190595.38,52760,8.13,73112.5,-12.87,-36.25,-37.21,0,*6F
1489190596.64,52761,8.13,73110.8,-12.87,-36.13,-37.27,0,*6D
1489190597.91,52762,8.13,73110.0,-12.87,-36.25,-37.27,0,*6B
1489190599.15,52763,8.13,73112.8,-12.89,-36.25,-37.27,0,*64
1489190600.36,52764,8.13,73114.8,-12.89,-35.71,-36.85,0,*68
1489190601.6,52765,8.13,73108.8,-12.89,-35.77,-36.91,0,*6A
1489190602.87,52766,8.13,73112.0,-12.89,-35.95,-36.91,0,*65
1489190604.11,52767,8.13,73118.5,-12.91,-36.01,-36.97,0,*65
1489190605.4,52768,8.13,73116.8,-12.91,-35.83,-37.09,0,*65
1489190606.67,52769,8.13,73116.8,-12.89,-35.95,-36.91,0,*6A
1489190607.88,52770,8.13,73116.5,-12.89,-35.89,-37.03,0,*65
1489190609.15,52771,8.13,73116.0,-12.89,-35.95,-37.09,0,*63
1489190610.39,52772,8.13,73116.5,-12.89,-35.95,-37.03,0,*6A
1489190611.69,52773,8.13,73118.3,-12.91,-35.83,-37.09,0,*6F
1489190612.93,52774,8.13,73118.3,-12.89,-35.95,-37.03,0,*6C
1489190614.17,52775,8.13,73108.8,-12.89,-35.95,-37.03,0,*6D
1489190615.42,52776,8.13,73114.3,-12.89,-35.95,-37.03,0,*6E
1489190616.69,52777,8.13,73118.0,-12.89,-35.95,-37.21,0,*6F
1489190617.96,52778,8.13,73112.8,-12.91,-35.95,-37.15,0,*6E
1489190619.18,52779,8.13,73114.3,-12.89,-36.01,-37.15,0,*68
1489190620.44,52780,8.13,73112.3,-12.91,-36.13,-37.15,0,*64
1489190621.68,52781,8.13,73108.8,-12.89,-36.07,-37.21,0,*6E
1489190622.95,52782,8.13,73114.0,-12.89,-35.95,-37.09,0,*6F
1489190624.22,52783,8.13,73108.8,-12.91,-36.13,-37.15,0,*67
1489190625.48,52784,8.13,73108.8,-12.91,-36.13,-37.15,0,*60
1489190626.74,52785,8.13,73108.5,-12.91,-36.13,-37.33,0,*65
1489190627.98,52786,8.13,73104.8,-12.91,-36.19,-37.27,0,*69
1489190629.22,52787,8.13,73106.8,-12.91,-36.19,-37.27,0,*68
1489190630.46,52788,8.13,73108.0,-12.91,-36.19,-37.27,0,*67
1489190631.71,52789,8.13,73104.0,-12.91,-36.13,-37.27,0,*6C
1489190632.95,52790,8.13,73108.0,-12.91,-36.19,-37.27,0,*6E
1489190634.21,52791,8.13,73106.3,-12.91,-36.13,-37.27,0,*65
1489190635.45,52792,8.13,73104.8,-12.91,-36.19,-37.27,0,*6C
1489190636.74,52793,8.13,73104.0,-12.91,-36.13,-37.09,0,*6B
1489190638.01,52794,8.13,73110.0,-12.95,-36.19,-37.39,0,*61
1489190639.26,52795,8.13,73102.0,-12.95,-36.19,-37.33,0,*6A
1489190640.52,52796,8.13,73108.5,-12.91,-36.13,-37.15,0,*63
1489190641.79,52797,8.13,73102.5,-12.91,-35.95,-37.03,0,*68
1489190643.04,52798,8.13,73110.5,-12.95,-36.01,-37.03,0,*6D
1489190644.28,52799,8.13,73112.5,-12.91,-36.01,-36.97,0,*64
1489190645.55,52800,8.13,73110.0,-12.91,-35.95,-37.15,0,*6E
1489190646.8,52801,8.13,73104.5,-12.95,-36.07,-37.15,0,*63
1489190648.07,52802,8.13,73100.5,-12.91,-36.13,-37.15,0,*61
1489190649.32,52803,8.13,73102.3,-12.95,-36.19,-37.15,0,*6E
1489190650.59,52804,8.13,73102.3,-12.91,-36.01,-37.09,0,*69
1489190651.83,52805,8.13,73102.3,-12.95,-36.01,-37.03,0,*66
1489190653.09,52806,8.13,73104.8,-12.95,-36.01,-37.15,0,*62
1489190654.36,52807,8.13,73106.0,-12.95,-35.83,-36.97,0,*61
1489190655.61,52808,8.13,73108.5,-12.95,-35.89,-36.97,0,*64
1489190656.86,52809,8.13,73100.5,-12.95,-35.77,-36.97,0,*64
1489190658.12,52810,8.13,73104.8,-12.95,-35.65,-36.97,0,*6F
1489190659.39,52811,8.13,73106.3,-12.91,-35.71,-36.91,0,*69
1489190660.64,52812,8.13,73106.3,-12.95,-35.77,-36.97,0,*6E
1489190661.93,52813,8.13,73104.8,-12.95,-35.65,-36.79,0,*6C
1489190663.18,52814,8.13,73112.0,-12.95,-35.77,-36.97,0,*68
1489190664.43,52815,8.13,73110.0,-12.95,-35.89,-37.03,0,*64
1489190665.68,52816,8.13,73112.3,-12.95,-35.77,-36.97,0,*6A
1489190666.95,52817,8.13,73102.3,-12.95,-35.77,-36.91,0,*6D
1489190668.19,52818,8.13,73106.8,-12.91,-35.59,-36.73,0,*66
1489190669.43,52819,8.13,73108.0,-12.91,-35.71,-36.85,0,*64
1489190670.7,52820,8.13,73106.3,-12.95,-35.77,-36.79,0,*6F
1489190671.97,52821,8.13,73112.8,-12.95,-35.59,-36.79,0,*62
1489190673.2,52822,8.13,73110.3,-12.91,-35.59,-36.85,0,*66
1489190674.49,52823,8.13,73110.8,-12.95,-35.65,-36.91,0,*69
1489190675.74,52824,8.13,73110.5,-12.97,-35.77,-36.91,0,*6F
1489190677.01,52825,8.13,73112.8,-12.95,-35.83,-36.97,0,*61
1489190678.28,52826,8.13,73108.5,-12.95,-35.83,-36.97,0,*62
1489190679.56,52827,8.13,73110.0,-12.95,-35.83,-36.97,0,*63
1489190680.82,52828,8.13,73110.3,-12.95,-35.65,-36.97,0,*64
1489190682.1,52829,8.13,73110.3,-12.95,-35.83,-36.97,0,*6D
1489190683.35,52830,8.13,73108.8,-12.95,-35.89,-36.97,0,*6F
1489190684.57,52831,8.13,73104.8,-12.97,-35.77,-36.97,0,*6D
1489190685.81,52832,8.13,73108.8,-12.97,-35.83,-37.03,0,*69
1489190687.07,52833,8.13,73108.8,-12.97,-35.65,-36.91,0,*6A
1489190688.32,52834,8.13,73106.5,-12.97,-35.77,-36.91,0,*6E
1489190689.55,52835,8.13,73106.8,-12.97,-35.59,-36.79,0,*65
1489190690.79,52836,8.13,73106.5,-12.97,-35.59,-36.79,0,*66
1489190692.06,52837,8.13,73110.5,-12.95,-35.77,-36.91,0,*6F
1489190693.33,52838,8.13,73106.3,-12.97,-35.83,-36.91,0,*69
1489190694.58,52839,8.13,73112.5,-12.97,-35.77,-36.91,0,*63
1489190695.83,52840,8.13,73106.0,-12.99,-35.53,-36.97,0,*63
1489190697.07,52841,8.13,73114.5,-12.97,-35.65,-36.97,0,*69
1489190698.31,52842,8.13,73114.3,-12.97,-35.47,-36.91,0,*6C
1489190699.55,52843,8.13,73118.8,-12.97,-35.47,-36.79,0,*6B
1489190700.77,52844,8.13,73114.5,-12.97,-35.47,-36.55,0,*62
1489190702.04,52845,8.13,73116.5,-12.99,-35.53,-36.67,0,*69
1489190703.3,52846,8.13,73118.5,-12.99,-35.65,-36.97,0,*60
1489190704.56,52847,8.13,73112.8,-12.97,-35.65,-36.91,0,*69
1489190705.8,52848,8.06,73106.3,-12.97,-35.77,-36.91,0,*65
1489190707.05,52849,8.06,73112.5,-12.97,-35.77,-36.91,0,*64
1489190708.29,52850,8.13,73110.3,-12.97,-35.77,-36.91,0,*6C
1489190709.53,52851,8.13,73114.5,-12.99,-35.71,-36.97,0,*63
1489190710.81,52852,8.13,73118.3,-12.99,-35.83,-36.67,0,*62
1489190712.07,52853,8.13,73112.0,-12.99,-35.83,-36.97,0,*6C
1489190713.31,52854,8.13,73114.0,-12.99,-35.71,-36.85,0,*65
1489190714.59,52855,8.13,73112.8,-12.99,-35.65,-36.79,0,*62
1489190715.83,52856,8.13,73112.3,-12.99,-35.71,-36.97,0,*64
1489190717.07,52857,8.13,73112.3,-12.99,-35.71,-36.85,0,*66
1489190718.32,52858,8.06,73116.3,-12.97,-35.77,-36.91,0,*64
1489190719.58,52859,8.13,73108.0,-12.99,-35.83,-36.97,0,*66
1489190720.85,52860,8.13,73108.8,-12.99,-35.83,-36.85,0,*6F
1489190722.12,52861,8.13,73112.5,-12.99,-35.83,-36.97,0,*6D
1489190723.36,52862,8.13,73106.3,-12.99,-35.89,-36.97,0,*64
1489190724.6,52863,8.13,73114.3,-12.99,-35.89,-36.97,0,*65
1489190725.87,52864,8.13,73130.3,-12.99,-35.83,-36.85,0,*6B
1489190727.13,52865,8.06,73116.3,-12.97,-35.83,-36.91,0,*61
1489190728.38,52866,8.13,73118.8,-12.99,-35.89,-36.97,0,*60
1489190729.62,52867,8.13,73122.8,-12.99,-35.89,-36.97,0,*61
1489190730.83,52868,8.06,73110.8,-12.97,-36.01,-36.97,0,*63
1489190732.08,52869,8.13,73100.5,-12.99,-36.07,-37.03,0,*66
1489190733.32,52870,8.13,73098.0,-12.99,-35.89,-37.03,0,*6B
1489190734.59,52871,8.13,73104.3,-12.97,-35.83,-36.91,0,*64
1489190735.83,52872,8.13,73102.3,-12.99,-35.89,-36.85,0,*66
1489190737.07,52873,8.13,73112.5,-12.99,-35.89,-36.97,0,*64
1489190738.34,52874,8.13,73116.8,-12.99,-35.83,-36.97,0,*69
1489190739.55,52875,8.13,73096.0,-12.97,-35.89,-36.85,0,*6F
1489190740.79,52876,8.13,73100.0,-12.99,-35.89,-36.97,0,*61
1489190742.06,52877,8.13,73114.5,-12.97,-35.83,-36.91,0,*62
1489190743.33,52878,8.13,73122.3,-12.99,-35.95,-36.97,0,*62
1489190744.59,52879,8.13,73108.3,-12.97,-35.65,-36.79,0,*62
1489190745.85,52880,8.13,73114.3,-12.99,-35.71,-36.79,0,*6F
1489190747.15,52881,8.13,73120.0,-12.99,-35.95,-36.91,0,*62
1489190748.39,52882,8.13,73120.3,-12.99,-35.89,-36.97,0,*6A
1489190749.65,52883,8.13,73114.8,-12.99,-35.71,-36.79,0,*6C
1489190750.89,52884,8.13,73116.5,-12.99,-35.89,-36.85,0,*6F
1489190752.13,52885,8.13,73114.3,-12.99,-35.89,-36.97,0,*6D
1489190753.38,52886,8.13,73118.0,-12.99,-35.89,-36.97,0,*6E
1489190754.62,52887,8.06,73118.8,-12.99,-36.07,-36.97,0,*6A
1489190755.84,52888,8.13,73110.3,-12.97,-36.07,-37.03,0,*67
1489190757.13,52889,8.13,73116.0,-12.99,-35.83,-36.79,0,*6B
1489190758.37,52890,8.13,73108.0,-12.97,-35.89,-36.91,0,*61
1489190759.61,52891,8.13,73104.8,-12.99,-35.89,-36.97,0,*68
1489190760.85,52892,8.06,73098.0,-12.99,-35.89,-36.85,0,*68
1489190762.1,52893,8.13,73108.8,-12.97,-35.83,-36.73,0,*64
1489190763.34,52894,8.13,73114.0,-12.99,-36.07,-36.97,0,*68
1489190764.58,52895,8.13,73112.5,-12.97,-35.95,-36.97,0,*6F
1489190765.83,52896,8.13,73116.8,-12.99,-35.71,-36.67,0,*67
1489190767.07,52897,8.13,73112.3,-12.99,-35.89,-36.97,0,*6E
1489190768.35,52898,8.13,73110.3,-12.99,-35.83,-36.67,0,*64
1489190769.59,52899,8.13,73106.8,-12.99,-36.07,-36.97,0,*65
1489190770.83,52900,8.13,73110.0,-12.99,-35.89,-36.97,0,*61
1489190772.08,52901,8.13,73110.3,-12.97,-35.77,-36.61,0,*66
1489190773.34,52902,8.13,73102.8,-12.99,-35.65,-36.73,0,*6B
1489190774.63,52903,8.13,73110.8,-12.99,-35.83,-36.79,0,*68
1489190775.87,52904,8.13,73100.0,-12.97,-35.65,-36.43,0,*60
1489190777.11,52905,8.13,73108.0,-12.97,-36.01,-36.79,0,*69
1489190778.35,52906,8.13,73110.5,-12.99,-36.07,-36.97,0,*62
1489190779.59,52907,8.13,73108.5,-12.97,-35.89,-36.91,0,*6E
1489190780.83,52908,8.06,73106.5,-12.97,-36.01,-36.91,0,*62
1489190782.13,52909,8.13,73112.5,-12.99,-35.95,-36.79,0,*65
1489190783.39,52910,8.13,73112.8,-12.97,-35.83,-36.79,0,*64
1489190784.67,52911,8.13,73112.0,-12.99,-35.83,-36.67,0,*64
1489190785.91,52912,8.13,73116.0,-12.99,-36.07,-36.85,0,*64
1489190787.15,52913,8.13,73104.0,-12.99,-35.71,-36.67,0,*6B
1489190788.39,52914,8.13,73110.8,-12.97,-35.89,-36.79,0,*6A
1489190789.63,52915,8.13,73112.3,-12.97,-35.89,-36.79,0,*6B
1489190790.85,52916,8.13,73112.0,-12.97,-36.01,-36.97,0,*6B
1489190792.1,52917,8.13,73108.8,-12.97,-35.83,-36.73,0,*69
1489190793.34,52918,8.13,73108.5,-12.97,-35.89,-36.79,0,*66
1489190794.58,52919,8.13,73110.3,-12.97,-35.89,-36.91,0,*61
1489190795.82,52920,8.13,73114.5,-12.99,-36.07,-36.97,0,*66
1489190797.09,52921,8.13,73114.5,-12.99,-36.25,-36.97,0,*67
1489190798.33,52922,8.13,73114.5,-12.97,-36.07,-36.79,0,*6A
1489190799.58,52923,8.13,73118.5,-12.97,-36.07,-36.91,0,*6D
1489190800.84,52924,8.13,73124.3,-12.99,-36.13,-36.97,0,*67
1489190802.1,52925,8.13,73118.8,-12.99,-36.13,-37.03,0,*6A
1489190803.32,52926,8.13,73112.3,-12.97,-36.07,-36.97,0,*6E
1489190804.54,52927,8.13,73116.0,-12.97,-36.07,-36.97,0,*6F
1489190805.78,52928,8.13,73110.8,-12.97,-35.65,-36.73,0,*6D
1489190807.0,52929,8.13,73112.0,-12.97,-35.77,-36.73,0,*6F
1489190808.27,52930,8.13,73098.0,-12.97,-35.83,-36.91,0,*60
1489190809.54,52931,8.13,73104.8,-12.99,-35.95,-36.97,0,*6E
1489190810.8,52932,8.13,73104.5,-12.99,-36.13,-36.97,0,*60
1489190812.04,52933,8.13,73102.0,-12.97,-36.01,-36.91,0,*6A
1489190813.29,52934,8.06,73096.5,-12.99,-36.07,-36.97,0,*63
1489190814.53,52935,8.13,73102.8,-12.97,-36.01,-36.91,0,*6C
1489190815.77,52936,8.06,73092.5,-12.99,-36.31,-36.97,0,*64
1489190817.06,52937,8.13,73094.3,-12.99,-36.13,-36.91,0,*63
1489190818.32,52938,8.13,73100.8,-12.99,-36.13,-36.97,0,*6A
1489190819.58,52939,8.13,73106.0,-12.99,-36.13,-37.03,0,*67
1489190820.85,52940,8.13,73110.5,-12.99,-35.95,-37.03,0,*64
1489190822.09,52941,8.13,73114.5,-12.99,-36.07,-36.85,0,*62
1489190823.36,52942,8.13,73106.3,-12.99,-35.95,-36.97,0,*6A
1489190824.63,52943,8.13,73112.3,-12.99,-35.95,-36.85,0,*68
1489190825.85,52944,8.13,73110.8,-12.97,-35.77,-36.73,0,*64
1489190827.12,52945,8.13,73108.0,-12.99,-35.83,-36.67,0,*65
1489190828.37,52946,8.13,73114.5,-12.97,-35.89,-36.79,0,*6D
1489190829.61,52947,8.13,73108.0,-12.97,-35.89,-36.91,0,*6A
1489190830.82,52948,8.13,73108.5,-12.97,-36.19,-36.97,0,*69
1489190832.12,52949,8.06,73104.8,-12.99,-36.25,-37.09,0,*6F
1489190833.38,52950,8.06,73104.3,-12.99,-36.13,-37.03,0,*68
1489190834.63,52951,8.06,73106.8,-12.99,-36.07,-37.03,0,*6C
1489190835.85,52952,8.06,73108.8,-12.97,-36.31,-37.03,0,*64
1489190837.11,52953,8.13,73104.8,-12.99,-36.13,-37.03,0,*6B
1489190838.37,52954,8.13,73108.0,-12.99,-36.13,-37.03,0,*6C
1489190839.61,52955,8.13,73108.8,-12.97,-36.01,-36.79,0,*6C
1489190840.88,52956,8.13,73116.0,-12.99,-36.13,-36.97,0,*62
1489190842.12,52957,8.13,73112.8,-12.99,-36.07,-36.97,0,*66
1489190843.39,52958,8.13,73114.8,-12.99,-36.25,-37.03,0,*65
1489190844.61,52959,8.13,73112.0,-12.97,-36.07,-36.97,0,*66
1489190845.87,52960,8.13,73108.8,-13.01,-36.13,-37.03,0,*6B
1489190847.11,52961,8.13,73108.3,-13.01,-36.07,-37.03,0,*6F
1489190848.35,52962,8.13,73110.0,-13.01,-36.07,-36.97,0,*60
1489190849.59,52963,8.13,73104.3,-13.01,-36.07,-36.85,0,*62
1489190850.86,52964,8.13,73108.0,-12.99,-35.95,-36.97,0,*6E
1489190852.13,52965,8.13,73122.3,-12.99,-36.25,-37.03,0,*6B
1489190853.39,52966,8.13,73116.0,-12.99,-36.13,-37.03,0,*6D
1489190854.65,52967,8.13,73112.0,-13.01,-36.13,-37.03,0,*6C
1489190855.92,52968,8.06,73098.5,-13.03,-36.13,-37.09,0,*6B
1489190857.18,52969,8.13,73100.8,-13.01,-36.13,-37.03,0,*62
1489190858.41,52970,8.13,73108.3,-13.01,-35.89,-36.85,0,*65
1489190859.66,52971,8.13,73108.8,-13.01,-35.71,-36.67,0,*6F
1489190860.92,52972,8.13,73104.3,-13.01,-35.65,-36.67,0,*69
1489190862.18,52973,8.13,73108.5,-13.01,-35.65,-36.85,0,*64
1489190863.46,52974,8.13,73112.0,-13.01,-35.65,-36.79,0,*60
1489190864.71,52975,8.13,73112.8,-13.01,-35.53,-36.85,0,*67
1489190865.95,52976,8.13,73116.0,-13.01,-35.71,-36.97,0,*67
1489190867.21,52977,8.13,73122.0,-13.01,-35.53,-36.67,0,*69
1489190868.47,52978,8.13,73116.5,-13.03,-35.53,-36.61,0,*62
1489190869.75,52979,8.06,73108.0,-13.01,-35.65,-36.79,0,*6D
1489190870.99,52980,8.13,73110.3,-13.03,-35.83,-36.85,0,*62
1489190872.25,52981,8.13,73110.5,-13.03,-35.83,-36.79,0,*60
1489190873.49,52982,8.13,73112.3,-13.01,-35.89,-36.85,0,*68
1489190874.75,52983,8.06,73110.3,-13.01,-35.71,-36.79,0,*6D
1489190876.01,52984,8.13,73118.0,-13.03,-35.65,-36.79,0,*6D
1489190877.25,52985,8.13,73120.3,-13.03,-35.65,-36.67,0,*63
1489190878.51,52986,8.13,73122.3,-13.01,-35.65,-36.67,0,*62
1489190879.75,52987,8.13,73116.8,-13.03,-35.47,-36.61,0,*67
1489190881.04,52988,8.06,73116.0,-13.01,-35.65,-36.61,0,*6A
1489190882.3,52989,8.06,73112.5,-13.03,-35.65,-36.61,0,*69
1489190883.56,52990,8.06,73118.3,-13.01,-35.71,-36.79,0,*6F
1489190884.8,52991,8.13,73122.0,-13.01,-35.89,-36.85,0,*6A
1489190886.02,52992,8.06,73120.0,-13.03,-35.89,-36.67,0,*67
1489190887.26,52993,8.13,73122.3,-13.03,-35.89,-36.79,0,*69
1489190888.47,52994,8.13,73126.8,-13.03,-35.89,-36.85,0,*6D
1489190889.69,52995,8.06,73116.0,-13.03,-36.07,-36.97,0,*6A
1489190890.93,52996,8.13,73126.8,-13.03,-35.95,-36.97,0,*61
1489190892.17,52997,8.13,73122.8,-13.03,-35.95,-36.85,0,*63
1489190893.41,52998,8.13,73120.5,-13.03,-35.89,-36.79,0,*62
1489190894.65,52999,8.13,73124.0,-13.03,-36.13,-36.85,0,*60
1489190895.89,53000,8.13,73116.0,-13.03,-35.89,-36.79,0,*6B
1489190897.15,53001,8.06,73116.5,-13.03,-35.65,-36.49,0,*6B